Flag for U.S.A. Weather past 2 weeks in Allentown, Pennsylvania, U.S.A.

Now
69 °F

Low clouds.


Feels Like: 69 °F
Forecast: 63 / 80 °F
Wind: 3 mph from North

Location: Lehigh Valley International Airport

Current Time: Aug 1, 2014 at 8:15:14 AM

Latest Report: Aug 1, 2014 at 7:51 AM


Visibility: 4 mi

Pressure: 30.19 "Hg

Humidity: 84%

Dew point: 64 °F

Location of AllentownLocation

Historic Weather in Allentown — Graph

°F

Allentown temperature yesterday

Maximum temperature yesterday: 82 °F (at 2:51 PM)
Minimum temperature yesterday: 61 °F (at 5:51 AM)
Average temperature yesterday: 71 °F

Past Weeks' High & Low Weather Summary

 TemperatureHumidityPressure
High91 °F (Jul 23, 3:51 PM)94% (Jul 22, 3:51 AM)30.25 "Hg (Jul 22, 3:51 AM)
Low53 °F (Jul 30, 4:51 AM)35% (Jul 25, 4:51 PM)29.52 "Hg (Jul 28, 4:51 AM)
Average71 °F67%30.00 "Hg
* Reported Jul 17 6:51 AM — Aug 1 6:51 AM, Allentown, Weather by CustomWeather, © 2014

Note: Actual official high and low records may vary slightly from our data, if they occured in-between our weather recording intervals... More about our weather records

Advertising

Allentown weather history for previous 24 hours

 ConditionsComfort  
Time TempWeatherWind HumidityBarometerVisibility
6:51 AM
Aug 1
66 °FFog.3 mph87%30.17 "Hg5 mi
5:51 AM63 °FFog.5 mph90%30.16 "Hg6 mi
4:51 AM63 °FClear.3 mph90%30.15 "Hg7 mi
3:51 AM64 °FFog.No wind90%30.14 "Hg6 mi
2:51 AM65 °FClear.No wind87%30.14 "Hg7 mi
1:51 AM65 °FClear.6 mph87%30.15 "Hg7 mi
12:51 AM65 °FPassing clouds.3 mph91%30.14 "Hg8 mi
11:51 PM
Jul 31
67 °FPassing clouds.No wind81%30.13 "Hg9 mi
10:51 PM67 °FClear.No wind85%30.13 "Hg9 mi
9:51 PM70 °FOvercast.No wind73%30.12 "Hg10 mi
8:51 PM70 °FSunny.No wind71%30.11 "Hg10 mi
7:51 PM75 °FSunny.No wind58%30.10 "Hg10 mi
6:51 PM77 °FSunny.5 mph56%30.10 "Hg10 mi
5:51 PM76 °FLight rain. Overcast.3 mph56%30.09 "Hg10 mi
4:51 PM78 °FOvercast.7 mph50%30.08 "Hg10 mi
3:51 PM81 °FPassing clouds.13 mph44%30.07 "Hg10 mi
2:51 PM82 °FSunny.13 mph41%30.08 "Hg10 mi
1:51 PM81 °FPassing clouds.12 mph44%30.08 "Hg10 mi
12:51 PM79 °FPassing clouds.13 mph48%30.08 "Hg10 mi
11:51 AM78 °FPassing clouds.10 mph52%30.09 "Hg10 mi
10:51 AM75 °FSunny.7 mph58%30.09 "Hg10 mi
9:51 AM73 °FSunny.7 mph62%30.09 "Hg10 mi
8:51 AM69 °FPassing clouds.No wind66%30.09 "Hg10 mi
Weather by CustomWeather, © 2014

See weather overviewHow to use our weather pages